Notices

What's New in latest Release from April 7th, 2021:

- Updated Glossary, including Speed of Maximum Gust, and Total Hourly Precipitation

- Updated national and regional climate services offices contacts and prices information

- Addition of station inventory lists for 1981-2010, 1971-2000, and 1961-1990 Normals.

If you haven't already, please take our survey and provide feedback about our website: https://eccc.sondage-survey.ca/f/LanguageSelection.aspx?s=442ca660-fcf1-47c0-95a9-59707d6fd709

Hourly Data Report for December 19, 2003

TORONTO CITY
ONTARIO

43°40'00.000" N
79°24'00.000" W
112.50 m
6158355
71508
XTO

Download Data

Hourly Data (December 2003)
Hourly Data Report for December 19, 2003
TIME
LST
Temp Definition
°C
Dew Point Definition
°C
Rel Hum Definition
%
Precip. Amount Definition
mm

Wind Dir Definition
10's deg

Wind Spd Definition
km/h
Visibility Definition
km
Stn Press Definition
kPa
Hmdx Definition


Wind Chill Definition


Weather Definition


00:00 -2.1 -5.9 75   LegendMM LegendMM LegendMM 99.30     LegendNANA
01:00 -1.9 -5.2 78   LegendMM LegendMM LegendMM 99.24     LegendNANA
02:00
03:00
04:00 -2.1 -5.2 79   LegendMM LegendMM LegendMM 99.23     LegendNANA
05:00 -1.8 -4.7 81   LegendMM LegendMM LegendMM 99.24     LegendNANA
06:00 -1.9 -4.6 82   LegendMM LegendMM LegendMM 99.26     LegendNANA
07:00
08:00 -0.5 -3.9 78   LegendMM LegendMM LegendMM 99.26     LegendNANA
09:00 -0.1 -4.0 75   LegendMM LegendMM LegendMM 99.31     LegendNANA
10:00 0.6 -4.9 67   LegendMM LegendMM LegendMM 99.32     LegendNANA
11:00 0.8 -4.8 66   LegendMM LegendMM LegendMM 99.32     LegendNANA
12:00 1.0 -4.9 65   LegendMM LegendMM LegendMM 99.26     LegendNANA
13:00 0.9 -4.2 69   LegendMM LegendMM LegendMM 99.21     LegendNANA
14:00 1.5 -4.5 64   LegendMM LegendMM LegendMM 99.20     LegendNANA
15:00 1.2 -4.2 67   LegendMM LegendMM LegendMM 99.24     LegendNANA
16:00 1.1 -4.1 68   LegendMM LegendMM LegendMM 99.27     LegendNANA
17:00 0.8 -3.7 72   LegendMM LegendMM LegendMM 99.32     LegendNANA
18:00 0.1 -2.3 84   LegendMM LegendMM LegendMM 99.37     LegendNANA
19:00 -0.1 -2.1 86   LegendMM LegendMM LegendMM 99.42     LegendNANA
20:00
21:00 -1.0 -4.7 76   LegendMM LegendMM LegendMM 99.52     LegendNANA
22:00 -1.5 -5.2 76   LegendMM LegendMM LegendMM 99.57     LegendNANA
23:00 -2.1 -6.1 74   LegendMM LegendMM LegendMM 99.62     LegendNANA

Notes on Data Quality.

Legend

  • E = Estimated
  • M = Missing
  • NA = Not Available*
  • [empty] = Indicates an unobserved value
Date modified: